Regional Weather Roundup
Issued by NWS Upton, NY

Current Version | Previous Version | Text Only | Print | Product List | Glossary On
Versions: 1 2 3 4 5 6 7 8 9 10 11 12 13 14 15 16 17 18 19 20 21 22 23 24 25 26 27 28 29 30 31 32 33 34 35 36 37 38 39 40 41 42 43 44 45 46 47 48 49 50
546
ASUS41 KOKX 301904
RWROKX

REGIONAL WEATHER ROUNDUP
NATIONAL WEATHER SERVICE NEW YORK NY
300 PM EDT TUE AUG 30 2016

NOTE: "FAIR" INDICATES FEW OR NO CLOUDS BELOW 12,000 FEET WITH NO
SIGNIFICANT WEATHER AND/OR OBSTRUCTIONS TO VISIBILITY.

NYZ071-072-176-178-NJZ106-104-302000-
NEW YORK CITY METRO AREA

CITY           SKY/WX    TMP DP  RH WIND       PRES   REMARKS
Central Park   SUNNY     84  60  44 SE6       30.11F
LaGuardia APRT MOSUNNY   86  60  41 SW9       30.08F
Kennedy INTL   MOSUNNY   81  65  58 S7        30.11F
Newark/Liberty MOSUNNY   83  63  50 SE9       30.08F
Bronx Bot Gard   N/A     82  61  47 N7        30.09F
Wall St Helipt CLEAR     84  64  51 W8        30.10F
Teterboro      SUNNY     84  58  40 W8        30.07F
$$

NYZ177-179-078>081-302000-
LONG ISLAND NEW YORK

CITY           SKY/WX    TMP DP  RH WIND       PRES   REMARKS
Farmingdale    MOSUNNY   83  61  47 SW10G21   30.10F
MacArthur/ISP  MOSUNNY   83  63  50 SW12      30.10F
Shirley        PTSUNNY   80  61  52 S8        30.11F
Riverhead      NOT AVBL
Westhampton    PTSUNNY   77  60  55 S7        30.13F
Southampton      N/A     77  66  69 S7        30.07F
Bridgehampton    N/A     81  64  57 SW2       29.96F
East Hampton   FAIR      76  64  66 SE5       30.11F
Montauk          N/A     76  63  64 VRB5      30.12F
$$

NYZ052-065-067-302000-
HUDSON VALLEY

CITY           SKY/WX    TMP DP  RH WIND       PRES   REMARKS
White Plains   MOSUNNY   83  58  42 CALM      30.09F
Newburgh       MOSUNNY   81  63  54 W7        30.12F
Montgomery     MOSUNNY   81  61  50 W3        30.10F
Poughkeepsie   SUNNY     80  57  45 VRB3      30.08F
Albany         PTSUNNY   80  55  42 NW7       30.09F
$$

NJZ001-105-106-008-010-013-015-019>022-104-302000-
NEW JERSEY

CITY           SKY/WX    TMP DP  RH WIND       PRES   REMARKS
Newark/Liberty MOSUNNY   83  63  50 SE9       30.08F
Teterboro      SUNNY     84  58  40 W8        30.07F
Caldwell       MOSUNNY   85  60  42 CALM      30.09F
Morristown     PTSUNNY   84  59  42 NW5       30.09F
Somerville     MOSUNNY   86  58  38 NW6       30.07F
Linden         FAIR      83  62  48 S10       30.10F
Sussex         MOSUNNY   81  60  48 W6        30.11F
Abdover          N/A     82  60  47 CALM      30.11F
Trenton        PTSUNNY   84  60  44 NE8       30.08F
Millville      MOSUNNY   85  67  54 W3        30.07F
Atlantic City  PTSUNNY   81  69  67 E12       30.08F
Wrightstown    SUNNY     86  64  48 E5        30.05F
Toms River     PTSUNNY   83  67  58 SE7       30.09F
Belmar         SUNNY     81  66  60 E10       30.10F
$$

PAZ047>061-062-071-302000-
EASTERN PENNSYLVANIA

CITY           SKY/WX    TMP DP  RH WIND       PRES   REMARKS
Philadelphia   MOSUNNY   89  59  36 VRB3      30.07F
Allentown      SUNNY     85  57  38 NW8       30.10F
Scranton       SUNNY     81  56  42 SW8       30.12F
$$

CTZ002-004>006-009-010-012-RIZ004-006-007-MAZ004-011-015-302000-
SOUTHERN NEW ENGLAND
 IN CT

CITY           SKY/WX    TMP DP  RH WIND       PRES   REMARKS
Bradley INTL   PTSUNNY   83  56  39 VRB6      30.08F
Hartford       MOSUNNY   84  56  38 VRB5      30.08F
Danbury        MOSUNNY   79  59  50 CALM      30.11F
Wtrbury/Oxford PTSUNNY   79  55  44 W6        30.15F
Bridgeport     SUNNY     83  57  41 SW9       30.09F
Meriden        SUNNY     84  56  38 VRB7      30.09F
New Haven      SUNNY     80  59  48 SW7       30.10F
Chester        FAIR      81  59  47 W7        30.10F
Groton         SUNNY     76  65  68 S9        30.09F
Wilimantic     SUNNY     81  57  43 VRB6      30.10F

 IN RI

CITY           SKY/WX    TMP DP  RH WIND       PRES   REMARKS
Providence     PTSUNNY   79  59  50 SE14      30.09F
Block Island   SUNNY     77  61  57 W8        30.12F
Westerly       SUNNY     78  59  51 SW7       30.11F
 IN MA

CITY           SKY/WX    TMP DP  RH WIND       PRES   REMARKS
Boston         MOSUNNY   75  59  57 SE15      30.07F
Worcester      SUNNY     75  51  43 SW8       30.12F
Westfield      MOSUNNY   82  54  37 E3        30.08F
Provincetown   SUNNY     78  57  48 SW7       30.10F
Nantucket      MOSUNNY   73  58  59 S8        30.11F
$$

ANZ330-335-338-340-345-350-353-355-302000-
COASTAL MARINE OBSERVATIONS


STATION/POSITION TIME  SKY/WX   TEMP    WIND        PRES    VSBY  WAVE
                                AIR SEA DIR/SP/G                  HT/PER
                 (UTC)          (F)     (DEG/KT/KT) (MB)    (MI)  (FT/S)
NY HARB ENTRANCE 1750            76 78  120/  6/  6 1020.2          4/11
20S FIRE ISLAND  1750            75 76  110/  4/  6 1020.1          5/12
GREAT SOUTH BAY  1815            75 80  190/  8/ 10   N/A
23 SSW MONTAUK P 1750            73 78  130/  2/  4 1020.7          4/11
15 E BARNEGAT LI 1800               78                N/A           5/12
HUDSON CANYON    1750            77 78              1019.6          5/12
KINGS POINT      1800            79 76              1019.6
EXECUTION ROCKS  1800            75      70/  8/  8   N/A
CENTRAL LI SOUND 1800            75 78   CALM  /  2   N/A           0
EASTERN LI SOUND 1800            72 71  170/  4/  6   N/A
ROBBINS REEF     1812            75     170/ 12/ 14 1018.9
$$


>>>>>>>>>>>>>>>>>>>>>>>>>>>> KEY <<<<<<<<<<<<<<<<<<<<<<<<<<<
>                                                          <
>     SKY/WX - Sky Condition/Present Weather               <
>     TMP    - Temperature in Fahrenheit                   <
>     DP     - Dew Point in Fahrenheit                     <
>     RH     - Relative Humidity in Percent                <
>     WIND   - Direction (from) and Speed in MPH           <
>     PRES   - Mean Sea Level Pressure (inches of Hg)      <
>     WCI    - Wind Chill Index                            <
>     VSB    - VISIBILITY IN MILES                         <
>     HX     - HEAT INDEX                                  <
>     TC     - TEMPERATURE IN CELSIUS                      <
>     VRB    - VARIABLE WIND DIRECTION                     <
>                                                          <
>>>>>>>>>>>>>>>>>>>>>>>>>>>> KEY <<<<<<<<<<<<<<<<<<<<<<<<<<<




USA.gov is the U.S. government's official web portal to all federal, state and local government web resources and services.